STARLINK-35073, 65385

Orbit data source: Space-Track

STARLINK-35073, 65385 is a payload satellite owned by SpaceX/Seattle (US) in SSO that was launched on Sat, 30 Aug 2025 UTC via an FALCON 9 launch vehicle from the Air Force Western Test Range (AFWTR). Payload-class satellites include a variety of spacecraft equipped with specific instruments for various scientific and technological missions. These include communications satellites like Starlink; space stations such as the ISS; scientific satellites like the Hubble; Earth observation satellites from companies like Planet Labs, Umbra, and HawkEye 360; GPS; miniature CubeSats for education and research; and military/defense satellites.

Loading next visibility...
Identifier
65385, 2025-191G
Orbit
SSO
Country
Flag of USUS
Related business
Manufacturer
SpaceX/Seattle
Mission
Operational Commercial Communications
Bus & Motor
STARLINK V2MO, Unknown motor
Mass
575 kg wet, ~530 kg dry
Launch date (UTC)
2025-08-30 (7 months ago)
Launch vehicle
FALCON 9
Launch site
Air Force Western Test Range (AFWTR)
Object type
Payload
Rocket body
Debris
Shape & HBR
Box + 2 Pan, 17.7 m
Radar Cross Section
36.964 m², Large (>1 m²)

Expand to show TLE details & history
Last TLE update: 14 hours ago

TLE from 14 hours ago
0 STARLINK-35073
1 65385U 25191G   26093.63646028  .00005226  00000-0  36607-3 0  9990
2 65385  97.6039 326.1213 0002584  89.2547 270.8976 15.05656501 34027
Epoch: 2026-04-03T15:16Z
TLE epoch observation values (Epoch: 2026-04-03T15:16:30.168Z)
Latitude
0.00001°
Longitude
-94.97214°
Altitude
552.529 km
Speed
7.586 km/s
True Right ascension
21h 44m 29s
True Declination
0° 00' 00"
Sunlit
Object was in daylight at epoch
Visualization orbit readout
Latitude
Unknown
Longitude
Unknown
Altitude
Unknown
Speed
Unknown
Apparent Right ascension
Unknown
Apparent Declination
Unknown
Sunlit
N/A
Visualization observer readout
Local Sidereal Time
11:21:24
Azimuth
Unknown
Elevation
Unknown
Doppler factor
Unknown
Orbital elements
Apogee altitude
548.274 km
Perigee altitude
544.695 km
Semi-major axis
6,924.622 km
Eccentricity
0.00026
Inclination
97.6039°
RAAN
326.1213°
Arg. of periapsis
89.2547°
True anomaly
270.86799°
Mean anomaly
270.8976°
Eccentric anomaly
270.8828°
Mean motion
3.7666 °/min
Orbital period
95.58 mins
BSTAR
0.00036607
Loading maneuver chart data...
Computing Atmospheric mass density...
Loading historical data...
Loading historical data...
Loading historical data...
Loading historical data...
Loading historical data...
Loading historical data...
Loading historical data...

Documentation

Showing up to 5 results
|